Location: Northam
(31.6525°S, 116.6655°E)
Time: 03:57:04
(UTC+08:00)

STARLINK-1863 - Pass Details

Date: 17 January 2021
Orbit: 529 x 531 km, 53.1° (Epoch: 28 February)

Event Time Altitude Azimuth Distance (km) Brightness Sun altitude
Rises 20:00:27 0° 214° (SW) 2,696 8.5 -8.2°
Maximum altitude 20:06:40 32° 140° (SE) 921 4.7 -9.3°
Enters shadow 20:09:51 12° 78° (ENE) 1,567 5.4 -9.9°
